Lid_Strength_Index
5 4 3 2 2 2 2 2 3 4 5 6 7 8 10 10 10 9 10 10 11 11 11 11 11 11 10 12 12 11 10 9 12 15 13 13 12 10 9 7 8 7 7
7 5 3 2 2 3 3 3 4 5 5 7 7 7 8 8 9 10 10 10 11 11 11 12 12 11 11 11 12 13 12 12 11 14 14 13 12 11 11 9 9 9 7
8 8 7 7 8 8 7 6 5 5 5 8 7 8 7 8 8 9 9 10 10 10 11 11 12 13 13 12 12 11 11 14 13 13 15 13 13 13 12 12 11 10 10
9 9 10 10 11 11 9 10 8 6 7 6 6 7 8 8 9 10 11 12 13 13 12 10 11 11 10 11 12 13 14 12 14 13 14 15 13 13 12 12 13 12 11
11 11 11 11 11 11 11 11 11 11 10 9 10 10 11 10 11 12 12 11 12 13 12 12 11 11 11 11 11 12 12 12 11 12 13 13 15 15 14 13 12 12 11
14 13 13 11 12 12 12 13 12 12 12 11 10 11 11 12 10 10 11 12 12 12 13 12 12 13 12 11 11 11 11 12 12 12 12 12 13 13 13 13 12 12 12
16 16 14 13 12 13 12 12 13 12 12 12 12 12 12 11 9 9 10 12 12 12 12 12 13 13 13 12 11 11 12 11 11 11 13 12 12 13 13 13 14 12 11
17 17 16 14 15 15 14 13 12 12 12 12 12 12 11 10 8 9 10 11 12 12 12 12 12 13 12 12 12 12 12 12 11 12 12 12 11 12 12 13 13 14 15
18 18 17 16 15 15 16 15 13 13 13 13 13 12 12 11 9 9 10 11 12 12 12 12 12 12 11 10 12 12 13 13 11 11 11 11 11 11 12 12 13 13 14
19 18 17 17 16 16 16 15 13 13 13 13 13 13 12 12 9 9 10 11 12 13 13 12 13 12 11 10 11 12 13 13 13 13 12 12 11 12 12 11 12 13 15
18 18 17 16 17 16 16 15 14 14 14 13 13 13 13 12 10 9 9 11 11 12 12 12 12 10 10 10 10 12 12 12 12 13 13 14 13 13 13 13 13 12 13
18 18 18 18 16 15 15 15 14 14 14 14 13 13 13 12 11 9 9 9 10 11 11 12 11 9 10 9 11 10 10 12 12 12 13 13 14 14 14 14 13 13 13
19 19 19 17 17 15 14 14 13 13 13 14 14 13 13 12 11 11 10 9 9 10 10 10 10 9 8 9 10 10 12 12 12 12 12 12 12 14 14 14 14 14 14
20 20 19 19 17 17 14 14 13 13 13 13 13 13 13 12 12 11 10 10 10 10 10 10 10 10 9 9 10 9 12 11 11 11 11 12 14 14 15 14 14 15 16
20 20 20 19 19 17 16 14 14 12 12 13 13 12 13 13 12 11 11 10 10 11 10 10 11 11 11 11 11 11 11 11 11 11 12 13 13 13 14 13 13 13 14
19 19 20 19 19 19 17 15 14 13 12 12 12 12 11 11 10 10 10 10 9 10 10 11 11 11 11 11 11 11 11 11 11 11 12 12 13 13 13 12 12 12 13
20 20 19 20 19 19 18 18 17 15 14 14 13 12 12 12 10 10 10 10 10 9 10 10 10 10 10 10 11 11 11 10 10 10 11 11 11 11 12 12 12 12 13
21 24 20 20 20 19 19 19 18 18 18 16 15 14 14 12 11 10 10 10 10 10 10 10 10 10 10 10 10 10 10 10 10 10 10 10 11 11 11 11 12 13 14
19 19 20 20 20 21 19 18 18 18 18 17 16 15 16 14 12 11 11 11 11 10 10 10 10 10 10 10 10 10 10 10 10 10 10 10 10 11 11 12 13 14 14
20 22 23 19 19 18 18 18 17 17 17 17 16 17 16 14 14 14 13 12 11 10 10 10 10 10 10 10 10 10 10 10 10 10 10 10 10 10 12 13 13 14 14
19 19 25 18 19 19 19 19 19 19 18 17 17 17 13 15 15 15 14 14 13 12 11 10 10 11 11 11 10 10 10 11 11 11 11 11 11 12 12 12 13 14 16
20 20 20 20 20 19 19 20 20 20 19 19 17 17 16 16 15 15 14 14 14 13 12 11 10 10 11 11 11 11 11 11 11 12 12 12 13 13 13 14 15 16 18
20 20 20 21 21 23 20 20 20 19 19 19 19 18 17 16 16 16 15 15 14 13 12 11 11 11 11 11 11 10 11 11 11 12 13 13 14 14 14 16 17 18 18
21 20 20 20 21 21 20 20 20 22 21 19 19 18 18 18 17 17 17 16 16 14 12 11 10 11 11 11 10 10 11 11 12 12 13 14 15 15 16 17 17 18 19
21 21 21 21 21 21 21 21 20 20 20 19 19 18 18 18 18 17 17 17 18 16 13 12 10 11 11 11 11 11 12 13 13 13 13 14 15 16 17 18 19 20 21
21 22 21 21 22 22 21 21 20 20 20 19 19 18 18 17 17 17 17 18 17 16 15 12 11 11 11 11 11 12 13 13 14 14 14 15 17 18 18 19 20 21 22